When you browse on this site, cookies collect data to enhance your experience and personalize the content and advertising you see.
Visit our Privacy Policy to learn more. By continuing to use the site, you agree to this use of cookies and data.
  • In United Kingdom
  • List of Countries
  • For 7 days
  • Water Temperature
  • Weather Map
  • Weather Widgets
  • user-avatar
    Login

    Hourly Weather Nesebyr

    Today, 8 April, Wednesday

    Time Temperature Precipitation Wind Pressure Humidity
    00:00 +4°C° 0 mm 4 mps 771 mmHg 72%
    01:00 +3°C° 0 mm 4 mps 770 mmHg 71%
    02:00 +3°C° 0 mm 3 mps 770 mmHg 71%
    03:00 +3°C° 0 mm 4 mps 770 mmHg 72%
    04:00 +3°C° 0 mm 4 mps 770 mmHg 73%
    05:00 +3°C° 0 mm 4 mps 769 mmHg 75%
    06:00 +5°C° 0 mm 5 mps 769 mmHg 71%
    07:00 +5°C° 0 mm 6 mps 769 mmHg 68%
    08:00 +8°C° 0 mm 7 mps 769 mmHg 65%
    09:00 +9°C° 0 mm 7 mps 769 mmHg 61%
    10:00 +10°C° 0 mm 7 mps 769 mmHg 57%
    11:00 +11°C° 0 mm 7 mps 769 mmHg 53%
    12:00 +11°C° 0 mm 7 mps 768 mmHg 53%
    13:00 +11°C° 0 mm 7 mps 768 mmHg 52%
    14:00 +11°C° 0 mm 7 mps 767 mmHg 51%
    15:00 +11°C° 0 mm 7 mps 767 mmHg 53%
    16:00 +10°C° 0 mm 7 mps 767 mmHg 56%
    17:00 +9°C° 0 mm 7 mps 767 mmHg 58%
    18:00 +8°C° 0 mm 6 mps 767 mmHg 65%
    19:00 +6°C° 0 mm 4 mps 767 mmHg 72%
    20:00 +4°C° 0 mm 3 mps 767 mmHg 79%
    21:00 +4°C° 0 mm 3 mps 767 mmHg 81%
    22:00 +3°C° 0 mm 3 mps 767 mmHg 82%
    23:00 +4°C° 0 mm 2 mps 767 mmHg 83%

    Tomorrow, 9 April, Thursday

    Time Temperature Precipitation Wind Pressure Humidity
    00:00 +4°C° 0 mm 2 mps 766 mmHg 81%
    01:00 +3°C° 0 mm 2 mps 766 mmHg 80%
    02:00 +3°C° 0 mm 2 mps 765 mmHg 78%
    03:00 +3°C° 0 mm 2 mps 765 mmHg 73%
    04:00 +3°C° 0 mm 2 mps 765 mmHg 68%
    05:00 +3°C° 0 mm 2 mps 765 mmHg 63%
    06:00 +5°C° 0 mm 2 mps 765 mmHg 59%
    07:00 +7°C° 0 mm 2 mps 765 mmHg 55%
    08:00 +9°C° 0 mm 2 mps 765 mmHg 50%
    09:00 +10°C° 0 mm 3 mps 765 mmHg 49%
    10:00 +12°C° 0 mm 3 mps 765 mmHg 47%
    11:00 +14°C° 0 mm 4 mps 765 mmHg 46%
    12:00 +15°C° 0 mm 4 mps 764 mmHg 46%
    13:00 +15°C° 0 mm 4 mps 764 mmHg 46%
    14:00 +17°C° 0 mm 4 mps 764 mmHg 46%
    15:00 +16°C° 0 mm 3 mps 763 mmHg 48%
    16:00 +16°C° 0 mm 3 mps 763 mmHg 50%
    17:00 +15°C° 0 mm 2 mps 763 mmHg 53%
    18:00 +13°C° 0 mm 2 mps 763 mmHg 57%
    19:00 +11°C° 0 mm 1 mps 763 mmHg 61%
    20:00 +8°C° 0 mm 0 mps 763 mmHg 65%
    21:00 +9°C° 0 mm 1 mps 763 mmHg 64%
    22:00 +9°C° 0 mm 1 mps 763 mmHg 64%
    23:00 +9°C° 0 mm 1 mps 763 mmHg 63%

    Day after tomorrow, 10 April, Friday

    Time Temperature Precipitation Wind Pressure Humidity
    00:00 +8°C° 0 mm 2 mps 762 mmHg 64%
    01:00 +8°C° 0 mm 2 mps 762 mmHg 65%
    02:00 +7°C° 0 mm 2 mps 761 mmHg 66%
    03:00 +7°C° 0 mm 2 mps 761 mmHg 68%
    04:00 +7°C° 0 mm 2 mps 761 mmHg 69%
    05:00 +7°C° 0 mm 2 mps 761 mmHg 71%
    06:00 +9°C° 0 mm 2 mps 761 mmHg 68%
    07:00 +12°C° 0 mm 2 mps 761 mmHg 65%
    08:00 +13°C° 0 mm 2 mps 761 mmHg 62%
    09:00 +15°C° 0 mm 2 mps 761 mmHg 58%
    10:00 +17°C° 0 mm 3 mps 761 mmHg 53%
    11:00 +19°C° 0 mm 3 mps 761 mmHg 49%
    12:00 +20°C° 0 mm 3 mps 761 mmHg 47%
    13:00 +21°C° 0 mm 3 mps 761 mmHg 46%
    14:00 +21°C° 0 mm 3 mps 761 mmHg 44%
    15:00 +20°C° 0 mm 3 mps 761 mmHg 49%
    16:00 +19°C° 0 mm 3 mps 760 mmHg 55%
    17:00 +18°C° 0 mm 2 mps 760 mmHg 61%
    18:00 +16°C° 0 mm 2 mps 761 mmHg 62%
    19:00 +15°C° 0 mm 1 mps 761 mmHg 64%
    20:00 +13°C° 0 mm 1 mps 761 mmHg 66%
    21:00 +13°C° 0 mm 1 mps 762 mmHg 64%
    22:00 +13°C° 0 mm 1 mps 762 mmHg 63%
    23:00 +12°C° 0 mm 0 mps 762 mmHg 61%

    11 April, Saturday

    Time Temperature Precipitation Wind Pressure Humidity
    00:00 +12°C° 0 mm 1 mps 762 mmHg 63%
    01:00 +12°C° 0 mm 1 mps 763 mmHg 65%
    02:00 +11°C° 0 mm 1 mps 763 mmHg 66%
    03:00 +10°C° 0 mm 2 mps 763 mmHg 70%
    04:00 +10°C° 0 mm 2 mps 764 mmHg 73%
    05:00 +9°C° 0 mm 3 mps 764 mmHg 77%
    06:00 +10°C° 0 mm 3 mps 764 mmHg 74%
    07:00 +10°C° 0 mm 4 mps 764 mmHg 71%
    08:00 +11°C° 0 mm 4 mps 765 mmHg 68%
    09:00 +12°C° 0 mm 4 mps 765 mmHg 65%
    10:00 +12°C° 0 mm 4 mps 765 mmHg 62%
    11:00 +13°C° 0 mm 5 mps 766 mmHg 58%
    12:00 +13°C° 0 mm 4 mps 766 mmHg 59%
    13:00 +12°C° 0 mm 4 mps 766 mmHg 60%
    14:00 +12°C° 0 mm 4 mps 765 mmHg 60%
    15:00 +12°C° 0 mm 4 mps 765 mmHg 61%
    16:00 +11°C° 0 mm 4 mps 765 mmHg 62%
    17:00 +11°C° 0 mm 4 mps 765 mmHg 63%
    18:00 +9°C° 0 mm 3 mps 766 mmHg 68%
    19:00 +8°C° 0 mm 2 mps 766 mmHg 73%
    20:00 +7°C° 0 mm 2 mps 766 mmHg 78%
    21:00 +7°C° 0 mm 1 mps 766 mmHg 79%
    22:00 +7°C° 0 mm 1 mps 766 mmHg 80%
    23:00 +6°C° 0 mm 1 mps 767 mmHg 81%

    12 April, Sunday

    Time Temperature Precipitation Wind Pressure Humidity
    00:00 +6°C° 0 mm 1 mps 767 mmHg 81%
    01:00 +6°C° 0 mm 1 mps 767 mmHg 81%
    02:00 +6°C° 0 mm 1 mps 767 mmHg 81%
    03:00 +6°C° 0 mm 1 mps 767 mmHg 80%
    04:00 +5°C° 0 mm 1 mps 767 mmHg 79%
    05:00 +5°C° 0 mm 1 mps 767 mmHg 78%
    06:00 +7°C° 0 mm 1 mps 767 mmHg 73%
    07:00 +8°C° 0 mm 1 mps 767 mmHg 67%
    08:00 +9°C° 0 mm 2 mps 767 mmHg 61%
    09:00 +10°C° 0 mm 3 mps 767 mmHg 58%
    10:00 +11°C° 0 mm 3 mps 767 mmHg 54%
    11:00 +12°C° 0 mm 4 mps 767 mmHg 50%
    12:00 +13°C° 0 mm 4 mps 767 mmHg 49%
    13:00 +13°C° 0 mm 4 mps 767 mmHg 49%
    14:00 +13°C° 0 mm 5 mps 766 mmHg 48%
    15:00 +12°C° 0 mm 4 mps 766 mmHg 51%
    16:00 +12°C° 0 mm 4 mps 766 mmHg 54%
    17:00 +11°C° 0 mm 4 mps 766 mmHg 58%
    18:00 +9°C° 0 mm 3 mps 765 mmHg 68%
    19:00 +8°C° 0 mm 3 mps 765 mmHg 78%
    20:00 +6°C° 0 mm 2 mps 765 mmHg 88%
    21:00 +5°C° 0 mm 2 mps 765 mmHg 88%
    22:00 +6°C° 0 mm 1 mps 765 mmHg 88%
    23:00 +5°C° 0 mm 1 mps 765 mmHg 89%

    13 April, Monday

    Time Temperature Precipitation Wind Pressure Humidity
    00:00 +5°C° 0 mm 1 mps 765 mmHg 88%
    01:00 +4°C° 0 mm 0 mps 764 mmHg 87%
    02:00 +3°C° 0 mm 0 mps 764 mmHg 86%
    03:00 +3°C° 0 mm 0 mps 763 mmHg 85%
    04:00 +3°C° 0 mm 0 mps 763 mmHg 85%
    05:00 +3°C° 0 mm 0 mps 763 mmHg 85%
    06:00 +6°C° 0 mm 1 mps 762 mmHg 77%
    07:00 +7°C° 0 mm 1 mps 762 mmHg 70%
    08:00 +9°C° 0 mm 1 mps 762 mmHg 63%
    09:00 +11°C° 0 mm 1 mps 762 mmHg 57%
    10:00 +13°C° 0 mm 1 mps 761 mmHg 50%
    11:00 +15°C° 0 mm 2 mps 761 mmHg 44%
    12:00 +15°C° 0 mm 2 mps 760 mmHg 45%
    13:00 +16°C° 0 mm 3 mps 760 mmHg 46%
    14:00 +17°C° 0 mm 3 mps 759 mmHg 47%
    15:00 +16°C° 0 mm 3 mps 759 mmHg 52%
    16:00 +16°C° 0 mm 3 mps 758 mmHg 57%
    17:00 +14°C° 0 mm 3 mps 757 mmHg 62%
    18:00 +13°C° 0 mm 2 mps 757 mmHg 67%
    19:00 +12°C° 0 mm 2 mps 757 mmHg 73%
    20:00 +9°C° 0 mm 2 mps 757 mmHg 78%
    21:00 +9°C° 0 mm 2 mps 756 mmHg 78%
    22:00 +9°C° 0 mm 2 mps 756 mmHg 79%
    23:00 +9°C° 0 mm 2 mps 756 mmHg 79%
    Show more